TimeEST,TemperatureF,Dew PointF,Humidity,Sea Level PressureIn,VisibilityMPH,Wind Direction,Wind SpeedMPH,Gust SpeedMPH,PrecipitationIn,Events,Conditions,WindDirDegrees,DateUTC
12:54 AM,-0.0,-4.0,83,30.15,10.0,North,3.5,-,N/A,,Clear,360,2014-02-07 05:54:00
1:54 AM,-2.0,-7.1,79,30.15,10.0,Calm,Calm,-,N/A,,Clear,0,2014-02-07 06:54:00
2:54 AM,-5.1,-11.0,76,30.14,10.0,SSW,4.6,-,N/A,,Clear,200,2014-02-07 07:54:00
3:54 AM,-6.0,-11.9,75,30.14,10.0,NE,3.5,-,N/A,,Clear,40,2014-02-07 08:54:00
4:54 AM,-7.1,-11.9,79,30.14,10.0,Calm,Calm,-,N/A,,Clear,0,2014-02-07 09:54:00
5:54 AM,-9.0,-15.0,75,30.15,10.0,ENE,4.6,-,N/A,,Clear,60,2014-02-07 10:54:00
6:54 AM,-9.9,-16.1,74,30.15,10.0,SSW,4.6,-,N/A,,Clear,200,2014-02-07 11:54:00
7:54 AM,-4.0,-9.0,79,30.17,10.0,Calm,Calm,-,N/A,,Clear,0,2014-02-07 12:54:00
8:54 AM,17.1,7.0,65,30.16,10.0,WSW,5.8,-,N/A,,Clear,240,2014-02-07 13:54:00
9:54 AM,21.0,5.0,50,30.16,10.0,Variable,3.5,-,N/A,,Clear,0,2014-02-07 14:54:00
10:54 AM,24.1,6.1,46,30.16,10.0,SW,6.9,-,N/A,,Clear,230,2014-02-07 15:54:00
11:54 AM,25.0,5.0,43,30.13,10.0,Variable,4.6,-,N/A,,Clear,0,2014-02-07 16:54:00
12:54 PM,25.0,3.9,41,30.11,10.0,WNW,6.9,-,0.00,,Mostly Cloudy,290,2014-02-07 17:54:00
1:54 PM,28.0,3.9,36,30.09,10.0,WSW,6.9,-,N/A,,Partly Cloudy,240,2014-02-07 18:54:00
2:54 PM,27.0,3.9,37,30.09,10.0,WSW,5.8,-,N/A,,Clear,250,2014-02-07 19:54:00
3:54 PM,26.1,5.0,41,30.10,10.0,WSW,8.1,-,N/A,,Clear,250,2014-02-07 20:54:00
4:54 PM,23.0,5.0,46,30.11,10.0,SW,4.6,-,N/A,,Clear,220,2014-02-07 21:54:00
5:54 PM,19.9,3.9,50,30.13,10.0,Calm,Calm,-,N/A,,Clear,0,2014-02-07 22:54:00
6:54 PM,19.9,3.9,50,30.14,10.0,WNW,3.5,-,N/A,,Mostly Cloudy,290,2014-02-07 23:54:00
7:54 PM,21.0,5.0,50,30.12,10.0,WSW,3.5,-,N/A,,Mostly Cloudy,240,2014-02-08 00:54:00
8:54 PM,21.0,5.0,50,30.11,10.0,WSW,6.9,-,N/A,,Scattered Clouds,240,2014-02-08 01:54:00
9:54 PM,19.0,5.0,54,30.12,10.0,SW,5.8,-,N/A,,Clear,220,2014-02-08 02:54:00
10:54 PM,19.0,5.0,54,30.10,10.0,WSW,8.1,18.4,N/A,,Clear,250,2014-02-08 03:54:00
11:54 PM,18.0,3.9,54,30.12,10.0,Variable,5.8,-,N/A,,Clear,0,2014-02-08 04:54:00